Location: Cheching
(60.0667°N, 164.2167°W)
Time: 20:53:30
(UTC+00:00)

NOAA 15 - Pass Details

Date: 29 January 2021
Orbit: 798 x 812 km, 98.7° (Epoch: 07 March)

Event Time Altitude Azimuth Distance (km) Brightness Sun altitude
Rises 07:21:48 0° 222° (SW) 3,312 8.0 -31.6°
Reaches altitude 10° 07:25:15 10° 246° (WSW) 2,390 7.5 -32.0°
Maximum altitude 07:28:08 15° 279° (W) 2,084 7.5 -32.3°
Drops below altitude 10° 07:31:02 10° 313° (NW) 2,404 7.8 -32.7°
Sets 07:34:33 0° 337° (NNW) 3,344 8.4 -33.1°
